UAL1203 KIAD-TNCA

Flight info

Callsign UAL1203
Flight time N/A
Altitude 32000
Route JCOBY4 SCOOB DCT KEMPR/N0462F310 DCT ECG AR8 OXANA/M079F310 L452 SWRTZ/M079F330 L452 LNHOM/N0466F330 L452 CAROX/N0473F340 DCT SEKAR UL450 BEROX BEROX2A
Aircraft B738/M-SDE2E3FGHIRWXY/LB1

Departure

Time N/A
Airport Washington Dulles International Airport (KIAD)

Arrival

Time 2026-04-27 18:06
Airport Queen Beatrix International Airport (TNCA)
Time Latitude Longitude Altitude Speed Heading
2026-04-27 17:29 16.03595 -70.07274 34996 ft 442 kts 175°
2026-04-27 17:29 16.00594 -70.06798 35002 ft 441 kts 176°
2026-04-27 17:30 15.94476 -70.06689 35003 ft 436 kts 186°
2026-04-27 17:30 15.85375 -70.07199 35001 ft 437 kts 186°
2026-04-27 17:31 15.79339 -70.07489 35000 ft 438 kts 185°
2026-04-27 17:31 15.73250 -70.07738 34992 ft 438 kts 185°
2026-04-27 17:32 15.64102 -70.08090 34995 ft 439 kts 185°
2026-04-27 17:33 15.57993 -70.08324 34995 ft 439 kts 185°
2026-04-27 17:33 15.51884 -70.08559 34991 ft 440 kts 185°
2026-04-27 17:34 15.45767 -70.08794 34992 ft 440 kts 185°
2026-04-27 17:34 15.39649 -70.09030 34981 ft 440 kts 185°
2026-04-27 17:35 15.33530 -70.09266 34993 ft 440 kts 185°
2026-04-27 17:35 15.27401 -70.09501 34990 ft 441 kts 185°
2026-04-27 17:36 15.21265 -70.09737 34992 ft 441 kts 185°
2026-04-27 17:36 15.16161 -70.09934 34989 ft 442 kts 185°
2026-04-27 17:37 15.10018 -70.10169 34982 ft 442 kts 185°
2026-04-27 17:37 15.03870 -70.10405 34975 ft 442 kts 185°
2026-04-27 17:38 14.97718 -70.10641 34984 ft 442 kts 185°
2026-04-27 17:38 14.91562 -70.10877 34986 ft 443 kts 185°
2026-04-27 17:39 14.85400 -70.11113 34983 ft 443 kts 185°
2026-04-27 17:39 14.79236 -70.11349 34982 ft 444 kts 185°
2026-04-27 17:40 14.73066 -70.11586 34968 ft 444 kts 185°
2026-04-27 17:40 14.66888 -70.11822 34977 ft 444 kts 185°
2026-04-27 17:41 14.60714 -70.12058 34976 ft 444 kts 185°
2026-04-27 17:41 14.54534 -70.12294 34976 ft 445 kts 185°
2026-04-27 17:41 14.51435 -70.12412 34802 ft 448 kts 185°
2026-04-27 17:42 14.48303 -70.12533 34226 ft 451 kts 185°
2026-04-27 17:42 14.45171 -70.12653 33547 ft 451 kts 185°
2026-04-27 17:42 14.42033 -70.12772 32827 ft 451 kts 184°
2026-04-27 17:42 14.38888 -70.12892 32101 ft 453 kts 184°
2026-04-27 17:43 14.35737 -70.13012 31361 ft 455 kts 184°
2026-04-27 17:43 14.32567 -70.13133 30606 ft 458 kts 184°
2026-04-27 17:43 14.29373 -70.13255 29759 ft 461 kts 184°
2026-04-27 17:43 14.26204 -70.13375 28871 ft 462 kts 183°
2026-04-27 17:44 14.23011 -70.13497 28294 ft 457 kts 183°
2026-04-27 17:44 14.19823 -70.13618 27707 ft 458 kts 183°
2026-04-27 17:44 14.16642 -70.13739 27103 ft 456 kts 183°
2026-04-27 17:44 14.13485 -70.13858 26519 ft 452 kts 183°
2026-04-27 17:45 14.10350 -70.13977 25927 ft 449 kts 183°
2026-04-27 17:45 14.07241 -70.14095 25339 ft 445 kts 183°
2026-04-27 17:45 14.04156 -70.14213 24758 ft 442 kts 183°
2026-04-27 17:45 14.01087 -70.14330 24179 ft 440 kts 182°
2026-04-27 17:46 13.98039 -70.14446 23602 ft 437 kts 182°
2026-04-27 17:46 13.95006 -70.14561 22940 ft 435 kts 182°
2026-04-27 17:46 13.92025 -70.14674 22350 ft 431 kts 182°
2026-04-27 17:46 13.89047 -70.14787 21775 ft 426 kts 182°
2026-04-27 17:47 13.86095 -70.14899 21215 ft 422 kts 182°
2026-04-27 17:47 13.84159 -70.14973 20847 ft 420 kts 182°
2026-04-27 17:47 13.80271 -70.15120 20099 ft 415 kts 182°
2026-04-27 17:47 13.77396 -70.15230 19540 ft 412 kts 182°
2026-04-27 17:48 13.74535 -70.15338 18997 ft 410 kts 182°
2026-04-27 17:48 13.71698 -70.15446 18446 ft 407 kts 182°
2026-04-27 17:48 13.68875 -70.15553 17848 ft 405 kts 182°
2026-04-27 17:48 13.66070 -70.15660 17281 ft 401 kts 182°
2026-04-27 17:49 13.63298 -70.15765 16740 ft 397 kts 182°
2026-04-27 17:49 13.60547 -70.15869 16206 ft 393 kts 182°
2026-04-27 17:49 13.57825 -70.15973 15679 ft 390 kts 181°
2026-04-27 17:49 13.55123 -70.16075 15152 ft 387 kts 181°
2026-04-27 17:50 13.52445 -70.16177 14613 ft 385 kts 181°
2026-04-27 17:50 13.47125 -70.16378 13541 ft 380 kts 181°
2026-04-27 17:50 13.44492 -70.16478 12991 ft 377 kts 181°
2026-04-27 17:51 13.41885 -70.16576 12464 ft 374 kts 181°
2026-04-27 17:51 13.39293 -70.16675 11947 ft 371 kts 180°
2026-04-27 17:51 13.36729 -70.16772 11443 ft 368 kts 180°
2026-04-27 17:51 13.34182 -70.16868 11073 ft 362 kts 180°
2026-04-27 17:52 13.31709 -70.16962 10890 ft 351 kts 180°
2026-04-27 17:52 13.29310 -70.17054 10740 ft 339 kts 180°
2026-04-27 17:52 13.26990 -70.17141 10592 ft 329 kts 180°
2026-04-27 17:52 13.24735 -70.17226 10456 ft 319 kts 180°
2026-04-27 17:53 13.22546 -70.17309 10320 ft 310 kts 180°
2026-04-27 17:53 13.20447 -70.17388 10189 ft 302 kts 180°
2026-04-27 17:53 13.18377 -70.17466 10073 ft 294 kts 180°
2026-04-27 17:53 13.16362 -70.17543 9930 ft 287 kts 180°
2026-04-27 17:54 13.14385 -70.17618 9709 ft 283 kts 180°
2026-04-27 17:54 13.12423 -70.17693 9475 ft 279 kts 180°
2026-04-27 17:54 13.10493 -70.17767 9239 ft 276 kts 179°
2026-04-27 17:54 13.08589 -70.17841 9037 ft 272 kts 180°
2026-04-27 17:55 13.06704 -70.17913 8826 ft 270 kts 179°
2026-04-27 17:55 13.04833 -70.17985 8618 ft 268 kts 179°
2026-04-27 17:55 13.02972 -70.18056 8405 ft 267 kts 179°
2026-04-27 17:55 13.01125 -70.18127 8193 ft 265 kts 179°
2026-04-27 17:56 12.99277 -70.18197 7984 ft 267 kts 179°
2026-04-27 17:56 12.97415 -70.18268 7779 ft 270 kts 179°
2026-04-27 17:56 12.95532 -70.18340 7568 ft 271 kts 179°
2026-04-27 17:56 12.93653 -70.18412 7352 ft 270 kts 179°
2026-04-27 17:57 12.91778 -70.18484 7129 ft 269 kts 179°
2026-04-27 17:57 12.89914 -70.18556 6922 ft 268 kts 179°
2026-04-27 17:57 12.88054 -70.18627 6712 ft 267 kts 179°
2026-04-27 17:57 12.86204 -70.18698 6493 ft 266 kts 179°
2026-04-27 17:58 12.84358 -70.18769 6287 ft 265 kts 179°
2026-04-27 17:58 12.82519 -70.18840 6068 ft 264 kts 179°
2026-04-27 17:58 12.80690 -70.18910 5845 ft 262 kts 179°
2026-04-27 17:58 12.78872 -70.18979 5636 ft 261 kts 179°
2026-04-27 17:59 12.77065 -70.19049 5422 ft 259 kts 179°
2026-04-27 17:59 12.75275 -70.19118 5211 ft 257 kts 179°
2026-04-27 17:59 12.73496 -70.19186 5019 ft 255 kts 179°
2026-04-27 17:59 12.71727 -70.19254 4818 ft 254 kts 178°
2026-04-27 18:00 12.69969 -70.19321 4621 ft 252 kts 178°
2026-04-27 18:00 12.68215 -70.19388 4411 ft 252 kts 178°
2026-04-27 18:00 12.66469 -70.19455 4202 ft 251 kts 178°
2026-04-27 18:00 12.64725 -70.19529 4023 ft 251 kts 180°
2026-04-27 18:01 12.62996 -70.19860 3825 ft 253 kts 189°
2026-04-27 18:01 12.61299 -70.20310 3622 ft 251 kts 189°
2026-04-27 18:01 12.59619 -70.20751 3428 ft 248 kts 189°
2026-04-27 18:01 12.57955 -70.21175 3257 ft 245 kts 189°
2026-04-27 18:02 12.56298 -70.21356 3029 ft 234 kts 162°
2026-04-27 18:02 12.54979 -70.20563 2869 ft 217 kts 126°
2026-04-27 18:02 12.54323 -70.19219 2733 ft 209 kts 107°
2026-04-27 18:02 12.53968 -70.17810 2572 ft 205 kts 103°
2026-04-27 18:03 12.53647 -70.16396 2422 ft 202 kts 103°
2026-04-27 18:03 12.53331 -70.15021 2278 ft 195 kts 104°
2026-04-27 18:03 12.53016 -70.13674 2098 ft 189 kts 104°
2026-04-27 18:03 12.52716 -70.12390 1878 ft 187 kts 104°
2026-04-27 18:04 12.52411 -70.11104 1657 ft 185 kts 103°
2026-04-27 18:04 12.52114 -70.09849 1413 ft 177 kts 104°
2026-04-27 18:04 12.51829 -70.08651 1185 ft 167 kts 104°
2026-04-27 18:04 12.51567 -70.07544 963 ft 154 kts 104°
2026-04-27 18:05 12.51324 -70.06523 802 ft 144 kts 102°
2026-04-27 18:05 12.51093 -70.05546 609 ft 145 kts 101°
2026-04-27 18:05 12.50853 -70.04526 410 ft 147 kts 100°
2026-04-27 18:05 12.50617 -70.03522 211 ft 142 kts 102°
2026-04-27 18:06 12.50381 -70.02535 26 ft 143 kts 102°
2026-04-27 18:06 12.50174 -70.01670 32 ft 98 kts 104°
2026-04-27 18:06 12.50063 -70.01209 40 ft 37 kts 104°
2026-04-27 18:06 12.50031 -70.01053 42 ft 15 kts 83°
2026-04-27 18:07 12.50110 -70.01003 44 ft 13 kts 13°
2026-04-27 18:07 12.50181 -70.00985 45 ft 8 kts 14°
2026-04-27 18:07 12.50226 -70.00959 45 ft 7 kts 53°
2026-04-27 18:07 12.50227 -70.00916 45 ft 4 kts 104°
2026-04-27 18:08 12.50226 -70.00912 43 ft 0 kts 104°
2026-04-27 18:08 12.50226 -70.00911 43 ft 0 kts 104°
2026-04-27 18:08 12.50224 -70.00898 43 ft 3 kts 94°
2026-04-27 18:08 12.50237 -70.00885 46 ft 3 kts 18°
2026-04-27 18:09 12.50256 -70.00883 46 ft 3 kts
2026-04-27 18:09 12.50274 -70.00879 46 ft 3 kts 11°
2026-04-27 18:09 12.50292 -70.00875 44 ft 3 kts 12°
2026-04-27 18:09 12.50297 -70.00874 45 ft 0 kts 13°